#timestamp,LO_Frequency,Hit,StdDev 
1563717615.3,286046996.7,N
1563717635.1,286046997.0,N
1563717636.0,286046997.0,N
1563717655.8,286046999.1,N
1563717675.7,286046999.2,N
1563717695.5,286046998.2,N
1563717715.3,286047001.2,N
1563717735.2,286047001.1,N
1563717755.0,286046999.3,N
1563717755.9,286046999.3,N
1563717775.8,286046999.4,N
1563717795.6,286046998.4,N
1563717815.4,286046999.3,N
1563717835.3,286046998.7,N
1563717855.1,286046998.4,N
1563717875.9,286046999.1,N
1563717895.7,286046999.1,N
1563717915.5,286047001.2,N
1563717935.4,286046998.9,N
1563717955.2,286046999.0,N
1563717975.0,286046998.4,N
1563717975.9,286046998.4,N
1563717995.8,286046999.1,N
1563718015.6,286046998.7,N
1563718035.5,286046998.4,N
1563718055.3,286046999.0,N
1563718075.1,286046998.1,N
1563718095.9,286046998.2,N
1563718115.7,286047001.2,N
1563718135.5,286046999.4,N
1563718155.4,286047011.9,Y
1563718175.2,286047001.2,P
1563718195.1,286046999.4,N
1563718196.0,286046999.4,N
1563718215.8,286047000.7,N
1563718235.6,286047000.9,N
1563718255.5,286047002.8,Y
1563718275.3,286047002.0,P
1563718295.2,286047000.4,N
1563718315.0,286046999.0,N
1563718315.9,286046999.0,N
1563718335.7,286046999.2,N
1563718355.6,286046997.0,N
1563718375.4,286046997.2,N
1563718395.3,286046999.6,N
1563718415.1,286046997.2,N
1563718435.8,286046995.2,Y
1563718455.7,286046997.6,P
1563718475.5,286046995.5,P
1563718495.4,286046995.3,P
1563718515.2,286046995.5,N
1563718535.0,286046995.2,Y
1563718535.9,286046995.2,P
1563718555.8,286046998.2,N
1563718575.6,286047000.3,N
1563718595.4,286047002.4,N
1563718615.3,286047000.1,N
1563718635.1,286046999.9,N
1563718655.9,286047001.6,N
1563718675.7,286047002.3,N
1563718695.5,286047002.6,N
1563718715.4,286047002.1,N
1563718735.2,286047002.1,N
1563718755.0,286047002.1,N
1563718756.0,286047002.1,N
1563718775.8,286047002.8,N
1563718795.6,286047002.0,N
1563718815.5,286047002.0,N
1563718835.3,286047001.3,N
1563718855.1,286047005.6,N
1563718875.9,286047004.4,N
1563718895.7,286047003.3,N
1563718915.6,286047005.6,N
1563718935.4,286047005.7,N
1563718955.2,286047005.9,N
1563718975.1,286047003.5,N
1563718976.0,286047003.5,N
1563718995.8,286047001.3,N
1563719015.7,286047003.9,N
1563719035.5,286047003.9,N
1563719055.3,286047001.5,N
1563719075.2,286047002.2,N
1563719095.9,286047001.8,N
1563719115.7,286047002.3,N
1563719135.6,286047000.6,N
1563719155.4,286047001.2,N
1563719175.3,286047000.9,N
1563719195.1,286047000.4,N
1563719196.0,286047000.4,N
1563719215.8,286047002.0,N
1563719235.7,286046999.7,N
1563719255.5,286047001.8,N
1563719275.3,286047004.1,N
1563719295.2,286047003.1,N
1563719315.0,286047003.0,N
1563719315.9,286047003.0,N
1563719335.8,286047003.7,N
1563719355.6,286047005.5,Y
1563719375.4,286047003.7,P
1563719395.3,286047003.2,P
1563719415.1,286047003.8,P
1563719435.9,286047003.7,Y
1563719455.7,286047000.9,P
1563719475.5,286047000.6,N
1563719495.4,286047000.8,N
1563719515.2,286046998.7,N
1563719535.0,286046999.1,N
1563719535.9,286046999.1,N
1563719555.8,286046996.8,N
1563719575.6,286046998.6,N
1563719595.5,286046998.4,N
1563719615.3,286046999.1,N
1563719665.2,286046997.4,E
1563719675.1,286046998.8,N
1563719676.0,286046998.8,P
1563719695.8,286047001.0,P
1563719715.7,286047000.9,N
1563719735.5,286047002.5,N
1563719755.3,286047004.2,N
1563719775.2,286047002.4,N
1563719795.0,286047002.6,N
1563719795.9,286047002.6,N
1563719815.8,286047001.8,N
1563719835.6,286047001.4,N
1563719855.4,286047004.2,N
1563719875.3,286047003.7,N
1563719895.1,286047004.4,N
1563719915.8,286047004.0,N
1563719935.7,286047001.5,N
1563719955.5,286047001.4,N
1563719975.4,286047003.9,N
1563719995.2,286047003.6,N
1563720015.0,286047001.7,N
1563720015.9,286047001.7,N
1563720035.8,286047004.2,N
1563720055.6,286047004.2,N
1563720075.4,286047004.1,N
1563720095.3,286047003.4,N
1563720115.1,286047003.8,N
1563720135.9,286047005.8,Y
1563720155.7,286047001.8,P
1563720175.5,286047002.5,P
1563720195.4,286047002.1,P
1563720215.2,286047004.2,Y
1563720235.1,286047000.1,P
1563720236.0,286047000.1,N
1563720255.8,286047002.7,N
1563720275.6,286047001.3,N
1563720295.5,286047001.3,N
1563720315.3,286047004.4,Y
1563720335.1,286047002.3,P
1563720355.9,286047000.7,N
1563720375.7,286047000.0,N
1563720395.6,286047000.2,N
1563720415.4,286047000.4,N
1563720435.2,286046998.2,N
1563720455.1,286047000.5,N
1563720456.0,286047000.5,N
1563720475.8,286047000.7,N
1563720495.6,286046998.1,N
1563720515.5,286047000.0,N
1563720535.3,286046998.2,N
1563720555.2,286046999.0,N
1563720575.9,286046998.7,N
1563720595.7,286047001.1,N
1563720615.6,286046998.4,N
1563720635.4,286046998.1,N
1563720655.3,286047001.1,N
1563720675.1,286047000.5,N
1563720676.0,286047000.5,N
1563720695.8,286047002.3,N
1563720715.7,286046999.8,N
1563720735.5,286047000.4,N
1563720755.3,286047000.8,N
1563720775.2,286047001.1,N
1563720795.0,286046998.1,N
1563720795.9,286046998.1,N
1563720815.8,286047001.1,N
1563720835.6,286047000.6,N
1563720855.4,286047000.8,N
1563720875.3,286047000.8,N
1563720895.1,286047001.1,N
1563720915.8,286046999.3,N
1563720935.7,286046999.6,N
1563720955.5,286046999.4,N
1563720975.4,286046999.4,N
1563720995.2,286046998.6,N
1563721015.0,286046998.3,N
1563721015.9,286046998.3,N
1563721035.8,286046998.8,N
1563721055.6,286046999.6,N
1563721075.5,286046996.8,N
1563721095.3,286046997.2,N
1563721115.1,286046997.4,N
1563721135.9,286046997.2,N
1563721155.7,286046996.9,N
1563721175.5,286046999.0,N
1563721195.4,286046999.3,N
